This is the latest recevied weather packets stored in our database for station/object K5NWZ. If no packets are shown the sender has not sent any weather packets the latest 10 day(s).
| Time | Temp. | Humidity | Pressure | Rain* | Wind** | Luminosity | Snow |
|---|---|---|---|---|---|---|---|
| 1787397747 | 17.78° C | 80% | 1032.6 hPa | 0 mm | - | 0 W/m² | - |
| 1787397442 | 17.78° C | 80% | 1032.6 hPa | 0 mm | - | 0 W/m² | - |
| 1787397137 | 17.78° C | 80% | 1032.3 hPa | 0 mm | - | 0 W/m² | - |
| 1787396833 | 17.78° C | 79% | 1032.7 hPa | 0 mm | - | 0 W/m² | - |
| 1787396529 | 18.33° C | 78% | 1032.6 hPa | 0 mm | - | 0 W/m² | - |
| 1787396227 | 18.33° C | 78% | 1032.6 hPa | 0 mm | - | 0 W/m² | - |
| 1787395923 | 18.33° C | 77% | 1032.9 hPa | 0 mm | - | 0 W/m² | - |
| 1787395617 | 18.33° C | 77% | 1032.9 hPa | 0 mm | - | 0 W/m² | - |
| 1787395312 | 18.89° C | 76% | 1033 hPa | 0 mm | - | 0 W/m² | - |
| 1787395012 | 18.89° C | 75% | 1033 hPa | 0 mm | - | 0 W/m² | - |
| 1787394709 | 18.89° C | 75% | 1032.6 hPa | 0 mm | - | 0 W/m² | - |
| 1787394404 | 19.44° C | 74% | 1032.5 hPa | 0 mm | - | 0 W/m² | - |
| 1787394100 | 19.44° C | 74% | 1032.6 hPa | 0 mm | - | 0 W/m² | - |
| 1787393794 | 18.89° C | 74% | 1032.6 hPa | 0 mm | - | 0 W/m² | - |
| 1787393490 | 19.44° C | 74% | 1033 hPa | 0 mm | - | 0 W/m² | - |
| 1787393186 | 19.44° C | 74% | 1032.9 hPa | 0 mm | - | 0 W/m² | - |
| 1787392881 | 19.44° C | 74% | 1032.9 hPa | 0 mm | - | 0 W/m² | - |
| 1787392579 | 19.44° C | 74% | 1032.9 hPa | 0 mm | - | 0 W/m² | - |
| 1787392274 | 20° C | 74% | 1033.1 hPa | 0 mm | - | 0 W/m² | - |
| 1787391964 | 20° C | 75% | 1032.9 hPa | 0 mm | - | 0 W/m² | - |
| 1787391661 | 20° C | 74% | 1033 hPa | 0 mm | - | 0 W/m² | - |
| 1787391356 | 20° C | 74% | 1032.9 hPa | 0 mm | - | 0 W/m² | - |
| 1787391053 | 20° C | 74% | 1032.7 hPa | 0 mm | - | 0 W/m² | - |
| 1787390749 | 19.44° C | 75% | 1032.7 hPa | 0 mm | - | 0 W/m² | - |
| 1787390445 | 20° C | 75% | 1033 hPa | 0 mm | - | 0 W/m² | - |
* Rain latest hour (hover to see other rain measurements)
** Current wind speed in m/s (hover to see current wind gust speed)